sat.trackr.live / text

‹ back to catalog

STARLINK-4334

NORAD 53665 · 2022-105T

PAYLOAD ACTIVE UNKNOWN

§ Identity

Operator
Country
US
Launch date
2022-08-31
Launch site
AFWTR
Launch vehicle
Mass (kg)
RCS (m²)

Purposes: comms

External: N2YO · Heavens-Above · Gunter

§ Orbital elements

Epoch: 2026-05-25T04:00:03.998880Z

Period
93.65 min
Inclination
97.6033°
Eccentricity
0.0002213
Mean motion
15.37636016 rev/d
Perigee alt
451.6 km
Apogee alt
454.6 km
Semi-major
6,831.2 km
B*
2.2476e-3
RAAN
28.3144°
Arg perigee
86.2563°
Mean anomaly
135.8215°
Rev number
587

§ Raw data

STARLINK-43341 53665U 22105T   26145.16671295  .00083765  00000+0  22476-2 0  99912 53665  97.6033  28.3144 0002213  86.2563 135.8215 15.37636016  5878

JSON: /api/v1/satellites/53665 · /tle

For live sub-satellite position, see the globe view (requires WebGL).

§ Visibility from observer

Set your observer location to see the next 7 days of passes ≥ 10°. The values pass through the URL so the page stays shareable.

No JS? Fill the form by hand. The geolocation button needs JavaScript.